Other Public Products
Issued by NWS Grand Forks, ND

Home | Current Version | Previous Version | Graphics & Text | Print | Product List | Glossary On
Versions: 1 2 3 4 5 6 7 8 9 10 11 12 13 14 15 16 17 18 19 20 21 22 23 24 25 26 27 28 29 30 31 32 33 34 35 36 37 38 39 40 41 42 43 44 45 46 47 48 49 50
000
FPUS83 KFGF 221031
OPUFGF
PRAIRIE TO PINES WEATHER ROUNDUP
NATIONAL WEATHER SERVICE EASTERN NORTH DAKOTA/GRAND FORKS ND
500 AM CDT WED OCT 22 2014

 **SATELLITE DATA USED TO AUGMENT SKY COVER AT AUTOMATED STATIONS**
 *****  WEATHER ACROSS EASTERN NORTH DAKOTA  *****

CITY           SKY/WX    TMP DP  RH WIND       PRES   REMARKS
GRAND FORKS    LGT RAIN  55  42  61 S23G39    29.80F
GRAND FORKS AF PTCLDY    55  42  62 S20G28    29.79S
GRAND CITY NWS   N/A     54 N/A N/A SE32        N/A
BUXTON           N/A     55  43  65 SE22        N/A
DEVILS LAKE    CLEAR     57  43  58 S18G26    29.70R
FARGO          PTCLDY    56  41  57 SE25G38   29.86F
WAHPETON ARPT  MOSUNNY   50  37  62 SE23G29   29.90F
$$

 *****  WEATHER ACROSS CENTRAL AND WESTERN NORTH DAKOTA  *****

CITY           SKY/WX    TMP DP  RH WIND       PRES   REMARKS
JAMESTOWN      PTCLDY    58  41  53 S16G24    29.76R
BISMARCK       PTCLDY    56  47  71 CALM      29.70R
MINOT          CLEAR     56  45  66 SW10      29.64R
MINOT AFB      PTCLDY    53  47  78 W8        29.63R
GARRISON         N/A     55  45  68 W7        29.67R
WILLISTON      MOCLDY    53  46  77 SW21      29.71R
DICKINSON      CLEAR     52  45  77 W23G31    29.75R
HETTINGER      PTCLDY    51  44  77 W17       29.81R
$$

 *****  OTHER OBSERVATIONS NORTHEAST NORTH DAKOTA  *****

CITY           SKY/WX    TMP DP  RH WIND       PRES   REMARKS
WALHALLA         N/A     54  41  62 S13G24    29.73R
LANGDON        FAIR      54  41  62 S15       29.73R
CAVALIER       FAIR      54  41  62 S18G26    29.75S
GRAFTON        FAIR      54  41  62 S25       29.77F
CANDO          FAIR      55  45  67 SE15      29.69S
FORT TOTTEN    NOT AVBL
ROLLA          FAIR      54  45  71 S16G23    29.67S
RUGBY          FAIR      55  45  67 S12       29.65S
 ***** THE ABOVE OBSERVATIONS ARE NON NWS ARE NOT QUALITY
        CONTROLLED AND MAY MIS-REPORT RAIN FOR SNOW...
$$

 *****  OTHER OBSERVATIONS SOUTHEAST NORTH DAKOTA *****

CITY           SKY/WX    TMP DP  RH WIND       PRES   REMARKS
COOPERSTOWN    NOT AVBL
VALLEY CITY    FAIR      54  41  62 S13       29.80R
OAKES            N/A     57  41  54 S18G24    29.81R HAZE
GWINNER        SUNNY     54  39  58 SE10      29.85R
SHEYENNE NWR     N/A     54  41  62 S17       29.95S
BUFFALO          N/A     54  38  55 SE16        N/A
WYNDMERE         N/A     55  43  62 SE16        N/A
 ***** THE ABOVE OBSERVATIONS ARE NON NWS ARE NOT QUALITY
       CONTROLLED AND MAY MIS-REPORT RAIN FOR SNOW...
$$

  *****  WEATHER ACROSS NORTHERN MINNESOTA  *****

CITY           SKY/WX    TMP DP  RH WIND       PRES   REMARKS
FLAG ISLAND    CLEAR     46  41  81 S25       29.92F
WARROAD        CLEAR     46  43  87 SE14      29.92F
ROSEAU         CLEAR     50  41  71 SE18      29.89F
HALLOCK        PTCLDY    55  43  62 S28G37    29.79S
THF RVR FALLS  CLEAR     52  39  62 SE16G23   29.88F
HALSTAD          N/A     56  39  54 S24         N/A
FOSSTON        CLEAR     48  37  66 SE15G24   29.92F
BAUDETTE       CLEAR     43  37  79 SE8       29.99S
WASKISH        CLEAR     46  39  76 SE12G20   30.00S
CROOKSTON      PTCLDY    55  43  62 S30       29.85F
$$
  *****  WEATHER ACROSS CENTRAL AND WEST MINNESOTA  *****

CITY           SKY/WX    TMP DP  RH WIND       PRES   REMARKS
BEMIDJI        CLEAR     44  38  81 SE9       30.01S
PARK RAPIDS    PTCLDY    45  38  76 S20       30.03S
WADENA         PTCLDY    45  37  76 SE15      30.03S
DETROIT LAKES  CLEAR     50  41  71 SE17      29.96F
MOORHEAD       PTCLDY    55  45  67 SE24G33   29.88F
FERGUS FALLS   PTCLDY    52  37  58 SE22G28   29.96F
ELBOW LAKE     PTSUNNY   50  40  70 SE25G32   29.96F
MORRIS MN      PTCLDY    48  41  76 SE17G25   29.98F
STAPLES        PTCLDY    43  37  81 SE10G18   30.07R
WHEATON        PTCLDY    50  41  71 SE22G28   29.93F
$$
  *****  WEATHER ELSEWHERE ACROSS MINNESOTA  *****

CITY           SKY/WX    TMP DP  RH WIND       PRES   REMARKS
DULUTH         CLEAR     40  34  79 SE8       30.19R
INTRNTL FALLS  CLEAR     41  35  79 SE10G17   30.06F
ELY            CLEAR     39  36  87 S8        30.17S
CLOQUET        CLEAR     36  34  93 SE5       30.18S
BRAINERD       CLEAR     43  37  79 S12       30.11S
HIBBING        CLEAR     33  30  88 SE7       30.16R
ALEXANDRIA     MOCLDY    47  40  76 S17       30.06R
SAINT CLOUD    CLEAR     45  37  73 SE8       30.14R
MINNEAPOLIS    CLEAR     40  36  86 SE10      30.21R
$$

  *****  WEATHER ACROSS SOUTH DAKOTA  *****

CITY           SKY/WX    TMP DP  RH WIND       PRES   REMARKS
SIOUX FALLS    CLEAR     53  44  71 SE12      30.00S
BROOKINGS      NOT AVBL
WATERTOWN      CLEAR     53  42  66 S22G31    29.91F
HURON          CLEAR     55  40  56 S17G24    29.86F
SISSETON         N/A     51  43  74 S18G26    29.88F
ABERDEEN       CLEAR     60  40  47 S22G33    29.81F
MITCHELL       CLEAR     56  41  57 SE20      29.90S
PIERRE         MOCLDY    59  53  80 SE10      29.77R
MOBRIDGE       PTCLDY    59  52  77 SE10      29.72S
RAPID CITY     CLOUDY    57  37  47 N18       29.87R
$$

  *****  SOME WEATHER IN NEARBY STATES *****

CITY           SKY/WX    TMP DP  RH WIND       PRES   REMARKS
GLASGOW MT     MOCLDY    48  40  73 W15       29.78R
GREAT FALLS MT CLEAR     41  34  76 SW15      29.93R
CHEYENNE WY    MOCLDY    48  36  63 CALM      30.02F
SCOTTSBLUFF NE CLOUDY    53  52  96 NW5       29.93F
OMAHA NE       MOCLDY    55  44  66 SE15      30.10S
DES MOINES IA  CLEAR     45  38  76 SE8       30.21R
DAVENPORT IA   CLEAR     35  31  85 E8        30.30R
CHICAGO IL     CLOUDY    46  40  79 N6        30.30R
EAU CLAIRE WI  CLEAR     37  32  82 SE9       30.27R
LA CROSSE WI   CLEAR     38  34  85 E5        30.29R
$$

  *****  SOME NATIONAL WEATHER *****

CITY           SKY/WX    TMP DP  RH WIND       PRES   REMARKS
LA GUARDIA NY  TSTM      55  52  88 N13       29.89S
RALEIGH NC     PTCLDY    49  41  74 CALM      29.94S
ATLANTA GA     CLEAR     49  43  80 NW7       30.04R
NEW ORLEANS LA PTCLDY    67  59  75 NE7       30.03R
OKLAHOMA CITY  CLEAR     57  55  93 S3        30.08S FOG
ALBUQUERQUE NM PTCLDY    53  47  79 SE8       30.12S
SALT LAKE CITY CLEAR     41  34  76 CALM      30.12R
LOS ANGELES CA CLEAR     63  62  97 CALM      29.88S
BOISE ID       PTCLDY    46  37  71 SE12      30.08S
SEATTLE WA     LGT RAIN  57  48  72 S10       29.69F
$$

*** WEATHER ACROSS MANITOBA...SASKATCHEWAN AND ONTARIO ***
                ***ONTARIO***

CITY           SKY/WX    TMP DP  RH WIND       PRES   REMARKS
GERALDTON      PTCLDY    30  30 100 S6        30.29R WCI  24
THUNDER BAY    CLEAR     27  25  93 VRB2      30.28S
SIOUX LOOKOUT  CLEAR     39  36  87 S10       30.08F
TORONTO        PTCLDY    39  34  81 N14       30.22R
BIG TROUT LK   PTCLDY    39  34  81 S14G21    29.93F
PICKLE LAKE    NOT AVBL
DRYDEN         CLEAR     41  37  87 S15G22    30.05S
KENORA         PTCLDY    43  37  81 S12       29.96F
$$
                *** MANITOBA***

CITY           SKY/WX    TMP DP  RH WIND       PRES   REMARKS
BRANDON        PTCLDY    52  45  76 SE8       29.60F
DAUPHIN        CLEAR     39  37  93 CALM      29.57F
ISLAND LAKE    PTCLDY    45  39  81 SE10      29.77S
PILOT MOUND      N/A     55  43  62 S24G31      N/A
THE PAS        CLOUDY    43  41  93 SE7       29.56F
THOMPSON       CLEAR     39  39 100 SE3       29.62S
WINNIPEG       PTCLDY    55  41  58 S25G37    29.75S
LYNN LAKE      MOCLDY    39  39 100 W6        29.59R
CHURCHILL      FOG       37  37 100 NE7       29.64R VSB 1/8
GILLAM         CLEAR     43  37  81 S12       29.67R
$$
                ***SASKATCHEWAN***

CITY           SKY/WX    TMP DP  RH WIND       PRES   REMARKS
ESTEVAN        PTCLDY    54  45  71 SW10      29.65R
KINDERSLEY     LGT RAIN  45  43  93 NW2       29.72R
LLOYDMINSTER   MOCLDY    41  34  75 NW7       29.71S
PRINCE ALBERT  CLOUDY    48  43  81 W5        29.63R
REGINA         CLOUDY    48  43  81 SW8       29.62R



USA.gov is the U.S. government's official web portal to all federal, state and local government web resources and services.